Wetbulb
34.28 29.22 27.03 33.09 32.59 32.70 31.60 29.42 28.83 33.40 39.09 38.25 38.48 39.52 42.64 44.45 46.05 46.54 46.89 46.35 45.44 46.99 49.69 51.37 51.71 52.73 49.86 49.49 52.36 64.02 65.54 66.79 67.64 66.50 64.96 64.27 64.25 63.66 63.75 64.37 64.38 63.67 63.91 65.02
31.76 26.83 32.76 34.82 37.06 34.67 31.86 28.85 28.34 33.36 37.59 37.12 37.48 38.95 41.82 44.49 45.03 45.03 46.86 45.47 45.97 45.38 46.70 48.99 49.24 49.77 50.17 50.43 52.19 62.66 65.13 66.59 67.18 66.97 66.54 65.26 64.43 62.74 63.51 63.26 63.57 64.01 63.29 63.50
30.13 33.11 36.57 33.63 32.35 32.94 32.30 29.22 29.05 29.19 33.90 36.14 37.42 36.02 39.78 44.47 46.49 48.10 48.27 47.47 47.19 48.13 46.97 51.15 52.78 53.10 53.87 54.41 54.93 60.10 64.40 66.59 67.18 67.23 65.47 62.75 61.62 61.34 60.22 61.74 62.77 62.90 63.41 63.46
32.73 36.98 35.83 33.19 30.98 33.58 29.86 35.59 33.49 31.86 30.31 25.13 39.42 27.71 36.14 39.53 41.54 46.08 45.64 45.07 47.38 50.42 51.34 51.50 51.10 50.49 50.19 50.94 54.34 56.02 59.35 65.34 66.81 66.89 64.91 63.57 62.99 61.49 62.54 62.50 62.69 62.44 63.03 63.01
30.65 33.86 33.92 31.57 31.68 35.68 32.18 36.69 34.11 32.45 29.57 32.89 33.87 31.51 32.65 37.26 38.12 42.38 46.21 48.92 48.25 47.78 47.35 46.82 47.11 47.35 46.81 47.90 49.36 52.16 54.13 57.05 64.52 65.29 65.50 64.26 63.84 63.86 60.56 61.22 60.78 62.07 62.25 62.48
33.84 38.60 36.38 34.59 36.28 36.52 38.69 35.76 36.26 34.50 32.52 25.37 31.68 31.23 29.01 35.27 40.25 44.99 46.83 46.38 45.44 44.42 43.94 43.82 44.28 44.79 44.46 45.09 46.23 48.17 49.39 51.67 55.33 59.43 64.16 63.90 63.20 61.99 60.55 60.61 60.54 60.86 61.21 60.58
31.90 32.61 35.39 37.44 31.50 36.24 35.98 31.03 19.77 22.12 23.17 22.47 33.65 31.70 33.30 42.78 45.03 43.97 42.64 42.31 42.53 41.97 41.00 40.48 39.97 40.44 41.63 42.29 43.63 46.28 46.49 47.79 50.99 52.90 58.82 63.68 63.92 61.94 61.07 61.06 61.08 60.50 60.14 60.23
23.49 21.68 30.94 36.94 33.24 31.09 33.04 31.21 22.92 18.32 20.84 24.40 34.79 27.06 33.48 45.05 44.64 43.89 42.53 40.93 40.61 39.72 39.47 39.21 39.29 39.15 39.43 41.49 42.22 43.64 45.28 46.97 50.22 50.86 53.58 62.90 63.52 62.37 61.98 61.20 61.25 60.64 60.62 60.55
24.42 25.27 35.81 38.95 40.53 38.84 32.69 28.58 34.38 28.73 30.93 25.53 27.54 35.22 40.05 40.85 40.20 39.63 39.25 38.87 37.33 37.64 37.98 37.82 38.52 38.41 38.77 39.86 41.06 42.84 44.11 45.66 48.71 52.86 57.88 59.45 62.81 62.35 61.47 61.09 60.96 60.70 60.67 60.88
34.49 25.23 35.20 36.92 40.21 40.83 36.63 37.28 26.68 28.19 19.45 16.97 27.65 30.42 30.83 35.18 34.99 36.96 36.66 36.46 36.77 36.58 36.53 36.84 37.49 38.29 39.02 39.60 40.71 42.46 43.13 43.70 46.54 49.56 57.21 59.60 62.24 62.55 61.92 61.02 60.27 60.20 60.15 59.84
37.61 32.89 30.87 34.87 35.61 32.58 33.05 32.81 33.51 32.29 30.03 21.71 26.28 25.63 33.78 32.15 34.67 32.69 35.81 35.48 35.89 36.01 35.99 36.60 37.28 38.15 39.27 39.44 40.42 40.76 41.63 42.15 43.93 46.99 54.44 60.20 62.09 62.33 61.38 61.15 60.84 60.22 59.60 59.50
38.05 32.60 27.14 33.51 39.06 41.39 37.58 35.19 35.01 24.82 26.99 32.39 29.94 25.25 34.32 32.15 34.31 34.32 34.27 34.81 35.30 35.75 35.82 35.95 36.59 37.22 37.54 38.61 39.16 39.25 40.32 40.80 42.47 45.11 49.47 58.38 59.37 59.64 60.82 60.76 60.48 60.18 59.52 59.77
38.75 33.61 28.12 30.18 34.06 38.69 35.33 37.35 38.11 36.49 33.67 31.29 26.95 26.22 34.76 35.41 33.66 33.84 32.92 33.77 34.06 34.51 34.66 34.82 34.95 35.34 36.28 37.12 37.94 38.68 39.30 39.71 41.13 43.09 45.48 49.12 50.92 58.89 59.03 59.14 59.55 59.46 59.08 59.02
41.39 34.06 29.85 25.12 30.01 34.28 33.60 35.74 37.39 36.15 30.36 27.88 27.80 27.71 30.58 31.16 30.53 31.39 31.95 32.41 32.85 32.79 33.37 33.59 33.46 34.21 35.29 36.37 37.01 37.25 38.45 39.04 39.63 41.05 42.13 42.94 45.73 48.81 58.93 57.62 58.30 58.47 58.59 57.99
36.57 30.03 32.53 34.50 35.23 34.98 32.48 35.17 35.27 34.29 32.88 27.60 28.07 26.54 27.84 28.92 29.24 30.30 31.04 31.53 31.29 31.62 31.97 32.03 32.18 33.05 34.25 34.82 35.46 36.66 37.04 38.33 38.71 38.74 39.57 40.60 42.24 43.76 46.80 56.90 57.08 58.13 58.10 57.97
37.68 30.95 32.10 30.36 33.76 33.34 30.43 31.96 33.03 34.30 33.13 30.90 29.21 26.58 30.60 30.34 30.07 28.99 29.60 30.33 30.64 31.62 31.40 31.19 31.57 32.18 33.30 33.86 34.46 35.45 35.72 35.75 37.70 36.96 37.33 39.02 40.50 40.84 40.88 43.32 53.58 57.46 57.51 57.31
32.41 31.25 30.45 26.40 32.29 31.63 24.58 29.35 30.25 30.72 31.69 32.51 28.49 30.08 30.40 26.66 26.65 26.95 28.15 29.73 30.55 32.47 30.68 30.59 30.81 31.25 32.46 33.66 34.45 33.67 34.12 35.14 34.60 35.72 35.80 37.04 37.81 38.74 38.84 39.12 39.18 41.10 43.83 49.84
33.73 32.15 31.46 27.13 29.48 18.84 28.65 34.25 32.58 29.63 31.70 31.94 31.90 29.88 28.46 27.30 28.23 28.82 28.75 28.59 29.39 32.17 30.23 30.09 30.24 30.79 31.60 33.36 34.69 34.58 33.86 33.12 32.58 32.41 34.20 34.84 35.89 36.34 37.48 37.60 35.75 35.08 35.60 36.43
37.77 34.16 28.55 26.91 25.97 27.50 27.84 29.10 28.21 28.94 27.12 33.57 30.34 32.68 30.48 30.29 31.63 27.16 30.44 31.16 31.01 32.34 30.25 29.11 29.39 30.51 30.69 31.38 33.30 33.16 32.15 31.45 30.88 30.26 30.63 32.62 33.80 34.01 34.85 33.76 34.15 34.51 33.58 32.89
36.25 35.01 30.99 28.68 22.53 18.39 25.07 29.24 33.08 33.50 22.96 33.61 31.66 29.76 28.83 32.08 22.98 24.27 30.01 31.31 29.73 31.11 30.08 28.45 28.30 28.34 29.05 29.65 31.93 32.45 31.45 30.16 29.19 29.31 29.36 30.64 32.05 31.91 32.42 32.78 33.24 33.28 33.22 32.59
28.10 28.92 24.97 26.85 23.90 24.84 27.78 31.27 34.98 23.68 23.47 33.57 32.11 30.03 28.26 25.17 26.70 29.45 30.91 28.26 28.63 29.46 29.58 29.18 27.32 25.83 26.45 28.77 30.10 29.31 30.80 31.14 30.52 30.01 29.40 29.01 29.60 30.28 30.53 32.11 32.15 32.33 32.15 32.32
27.52 25.55 22.67 25.29 21.13 18.20 30.60 30.24 27.15 30.31 33.07 32.76 33.04 31.84 29.63 30.06 30.68 28.84 26.55 26.61 26.96 26.30 26.88 27.14 25.72 24.97 26.06 27.56 27.87 27.45 28.12 32.48 31.77 29.71 27.94 27.30 27.77 28.78 29.14 28.92 30.24 30.26 31.10 29.68
25.28 27.54 24.80 26.10 23.79 30.67 32.08 31.73 33.40 32.94 31.02 30.12 29.92 32.74 32.08 29.31 27.11 26.62 25.53 25.31 25.35 24.59 24.67 25.46 24.00 23.91 24.47 25.38 25.79 25.83 28.07 30.58 31.56 27.86 25.72 25.16 26.29 26.36 27.04 26.92 27.35 27.20 27.90 27.95
32.77 34.63 26.09 26.31 29.94 30.24 31.46 32.25 32.30 31.36 31.39 29.41 29.05 29.55 29.72 26.67 26.12 25.20 24.81 24.35 24.03 23.43 22.80 23.56 22.84 21.57 21.41 22.61 23.72 24.52 27.18 29.27 29.70 29.23 26.05 24.90 24.29 24.64 25.82 26.31 26.87 26.48 25.86 25.64
30.18 31.58 28.39 27.84 29.55 30.31 31.40 31.92 31.24 29.81 30.01 28.73 28.51 28.09 27.29 26.17 24.61 24.26 23.42 23.25 22.91 22.19 22.21 22.02 20.87 20.49 19.92 20.87 21.39 22.26 24.25 27.36 26.80 27.48 28.24 27.07 24.59 23.48 23.26 25.16 26.25 26.50 28.10 28.30
29.90 28.38 27.99 25.31 31.35 29.93 29.78 31.76 31.34 27.95 26.38 27.05 26.36 25.37 26.35 25.39 23.41 22.90 21.21 21.27 21.73 20.55 20.58 19.50 19.55 19.33 18.76 19.52 19.90 20.74 22.62 25.81 26.31 25.72 25.99 26.68 26.85 23.53 22.69 21.93 22.13 27.47 27.90 29.01
MSLP
1012.05 1012.11 1011.83 1011.61 1011.71 1011.50 1011.52 1011.04 1009.65 1008.27 1006.78 1006.46 1005.09 1003.72 1002.07 1001.77 1000.99 1000.55 1000.33 1000.31 1000.40 1000.34 1000.16 1000.23 1000.16 1000.10 1000.62 1000.71 1001.36 1001.67 1002.31 1002.97 1003.93 1004.74 1005.73 1006.37 1006.60 1007.11 1007.64 1007.85 1008.16 1008.89 1009.39 1009.89
1012.77 1011.77 1011.28 1011.04 1010.98 1010.72 1010.64 1010.31 1009.22 1008.12 1006.81 1006.60 1005.37 1003.65 1002.78 1001.94 1000.95 1000.29 1000.02 999.92 1000.07 1000.39 1000.41 1000.48 1000.40 1000.35 1000.78 1001.23 1001.18 1001.11 1001.53 1002.14 1002.75 1003.56 1004.18 1005.32 1006.03 1006.93 1007.33 1007.94 1008.16 1008.34 1008.96 1009.51
1012.65 1010.92 1010.92 1010.74 1010.09 1009.90 1009.60 1009.33 1008.61 1007.87 1007.13 1006.32 1005.66 1003.99 1003.07 1001.32 1000.24 999.64 999.43 999.56 999.85 1000.17 1000.75 1001.83 1001.91 1002.46 1002.65 1002.55 1002.46 1001.90 1001.47 1001.20 1001.82 1002.47 1003.99 1005.06 1006.09 1006.97 1007.56 1007.85 1007.89 1008.09 1008.51 1009.05
1011.71 1010.42 1010.12 1009.88 1009.50 1009.29 1009.18 1008.12 1008.07 1007.51 1007.52 1006.73 1006.33 1004.83 1003.23 1001.52 999.89 999.31 999.37 999.48 1000.55 1001.32 1002.32 1003.32 1003.39 1003.52 1003.89 1003.94 1003.61 1002.75 1002.57 1002.55 1001.99 1001.89 1003.12 1003.96 1004.52 1005.32 1005.79 1006.31 1007.16 1007.58 1008.10 1008.71
1009.27 1009.49 1009.32 1009.49 1008.03 1008.29 1008.22 1008.70 1007.77 1007.42 1007.33 1006.93 1006.14 1006.34 1002.48 1001.50 1000.24 999.80 1000.57 1001.76 1002.48 1003.33 1003.87 1004.50 1004.67 1004.87 1005.16 1005.09 1004.66 1004.02 1003.77 1003.31 1003.05 1003.26 1002.91 1002.74 1003.62 1004.21 1004.99 1005.93 1006.67 1007.03 1007.59 1008.08
1009.45 1008.88 1008.44 1007.31 1007.20 1007.15 1007.33 1007.49 1007.15 1007.11 1007.14 1006.99 1005.89 1006.08 1003.29 1002.48 1001.24 1001.02 1002.16 1003.70 1004.21 1005.12 1005.49 1005.82 1006.04 1005.86 1005.76 1005.80 1005.71 1005.10 1004.72 1004.50 1004.22 1003.85 1003.58 1003.45 1003.52 1004.35 1005.10 1005.75 1006.26 1006.60 1007.14 1007.63
1009.04 1007.53 1006.60 1006.47 1006.51 1006.57 1007.04 1007.65 1007.83 1007.84 1007.70 1006.71 1005.60 1005.77 1003.95 1003.43 1003.66 1003.39 1004.74 1005.63 1006.04 1006.33 1006.31 1006.27 1006.12 1006.12 1006.22 1006.01 1006.00 1006.04 1005.85 1005.14 1004.63 1004.24 1003.73 1003.44 1003.29 1003.75 1004.33 1004.81 1005.27 1005.88 1006.58 1007.13
1009.00 1007.32 1006.12 1005.53 1005.82 1006.10 1006.10 1006.62 1007.09 1007.46 1007.24 1006.39 1005.35 1005.50 1005.02 1005.56 1005.65 1006.42 1006.48 1007.76 1007.88 1007.52 1007.96 1007.87 1007.87 1007.82 1007.54 1007.26 1006.93 1006.58 1006.26 1006.28 1005.44 1004.42 1003.55 1003.03 1003.05 1003.15 1003.60 1004.33 1004.66 1005.09 1005.61 1006.11
1008.73 1007.46 1006.17 1005.69 1005.68 1005.95 1005.38 1005.77 1005.63 1006.41 1006.62 1006.50 1005.94 1005.96 1006.15 1007.24 1007.57 1007.92 1008.75 1008.54 1009.13 1009.66 1009.73 1009.42 1009.25 1009.15 1008.52 1008.17 1008.10 1007.67 1007.01 1006.20 1005.62 1004.72 1003.10 1002.32 1002.40 1002.67 1003.02 1003.38 1003.82 1004.42 1005.08 1005.70
1008.50 1007.71 1006.84 1006.35 1005.50 1005.04 1005.27 1004.78 1005.74 1006.89 1007.13 1007.18 1006.76 1008.11 1009.48 1009.79 1009.99 1010.67 1011.46 1010.24 1010.70 1010.99 1011.02 1009.89 1009.67 1009.58 1009.13 1008.91 1008.60 1008.14 1007.76 1007.06 1005.94 1004.47 1002.55 1001.53 1001.13 1001.52 1002.08 1002.82 1003.19 1003.63 1004.38 1005.26
1008.78 1008.50 1007.13 1007.14 1005.44 1004.89 1004.66 1004.77 1005.37 1006.25 1007.27 1007.98 1008.14 1011.14 1012.34 1012.45 1013.06 1012.18 1013.74 1011.68 1011.73 1012.04 1012.19 1010.94 1010.90 1010.95 1010.91 1010.46 1009.67 1008.84 1008.18 1007.27 1006.04 1004.47 1002.66 1001.44 1001.04 1001.26 1001.35 1001.80 1002.27 1002.75 1003.81 1004.36
1009.01 1008.97 1007.56 1006.80 1006.15 1005.18 1005.12 1004.99 1005.29 1006.52 1007.83 1008.26 1009.70 1012.76 1013.72 1013.82 1014.85 1013.82 1013.92 1013.15 1013.23 1014.19 1013.42 1012.41 1012.55 1012.83 1012.33 1011.50 1010.38 1009.59 1008.64 1007.58 1006.74 1005.22 1003.66 1002.25 1001.50 1001.58 1001.57 1001.52 1001.79 1002.50 1003.19 1003.88
1008.84 1008.64 1007.90 1007.19 1007.00 1006.05 1005.84 1005.65 1005.72 1007.06 1008.17 1008.55 1009.89 1013.58 1014.57 1015.06 1015.01 1015.89 1015.33 1015.19 1014.76 1015.44 1015.21 1013.44 1013.97 1013.88 1013.19 1012.31 1011.31 1010.68 1009.71 1008.70 1007.52 1006.20 1005.00 1003.82 1003.09 1002.33 1002.23 1001.50 1001.78 1002.30 1002.85 1003.71
1008.61 1009.09 1009.04 1008.29 1007.72 1007.48 1006.75 1006.44 1006.92 1007.96 1009.14 1010.29 1012.11 1014.59 1015.66 1016.25 1016.72 1016.89 1016.62 1016.86 1017.00 1016.66 1015.57 1015.45 1015.07 1014.77 1014.12 1013.29 1012.59 1011.87 1010.70 1009.86 1008.56 1007.46 1006.30 1005.41 1004.63 1003.67 1002.54 1002.17 1001.98 1002.36 1002.80 1003.48
1009.10 1009.41 1008.95 1007.90 1008.32 1007.82 1007.68 1007.35 1007.43 1008.65 1010.36 1011.85 1013.66 1015.27 1016.64 1017.20 1017.17 1017.71 1018.17 1017.69 1016.77 1016.29 1016.35 1016.09 1016.06 1015.80 1015.01 1014.32 1013.63 1012.56 1011.72 1010.99 1009.95 1008.80 1007.93 1007.09 1006.08 1004.96 1003.76 1003.03 1002.47 1002.40 1002.73 1003.21
1009.32 1009.51 1009.51 1009.57 1009.50 1009.50 1009.65 1009.62 1009.75 1010.87 1012.34 1013.54 1014.92 1016.43 1017.73 1018.21 1018.54 1018.48 1018.30 1018.03 1017.57 1017.87 1017.44 1017.94 1017.67 1016.97 1016.36 1015.65 1014.80 1014.03 1013.27 1012.20 1011.25 1010.32 1009.56 1008.45 1007.54 1006.58 1005.80 1004.73 1003.89 1003.34 1003.05 1003.48
1010.05 1009.83 1010.10 1010.67 1010.56 1010.44 1011.35 1013.18 1012.98 1013.41 1014.05 1014.65 1015.47 1017.09 1018.20 1018.76 1019.40 1019.73 1019.30 1019.21 1019.31 1018.74 1018.96 1018.75 1018.31 1017.71 1017.05 1016.14 1015.68 1015.02 1014.39 1013.71 1012.96 1011.86 1011.04 1010.25 1008.95 1008.41 1007.31 1006.82 1005.58 1005.44 1005.32 1004.64
1010.17 1010.02 1010.33 1011.18 1011.18 1012.64 1015.06 1015.31 1015.29 1015.56 1016.21 1016.50 1017.14 1018.13 1018.99 1019.61 1020.32 1020.42 1020.78 1020.84 1020.22 1019.92 1019.67 1019.30 1018.92 1018.79 1018.39 1017.89 1017.21 1016.76 1015.89 1015.10 1014.23 1013.56 1012.76 1011.62 1010.96 1010.37 1009.69 1008.98 1007.80 1008.23 1007.54 1007.40
1010.26 1010.47 1010.87 1011.64 1012.45 1014.64 1015.26 1016.26 1016.78 1016.58 1017.77 1018.15 1018.41 1018.67 1019.30 1019.83 1019.83 1021.15 1021.44 1021.17 1020.85 1020.29 1020.15 1020.45 1020.31 1020.09 1019.37 1018.62 1018.23 1017.62 1016.78 1016.36 1015.81 1015.31 1014.66 1013.72 1012.59 1012.08 1011.37 1010.58 1009.27 1009.50 1009.06 1009.21
1011.35 1010.86 1011.53 1012.45 1013.89 1015.73 1017.27 1017.06 1016.85 1016.67 1018.25 1019.16 1019.31 1019.52 1019.76 1019.73 1020.64 1021.82 1021.83 1021.52 1021.24 1020.95 1021.06 1020.96 1020.85 1020.72 1020.00 1019.82 1019.38 1018.49 1017.86 1017.59 1017.51 1017.11 1016.44 1015.55 1014.71 1013.49 1013.43 1012.55 1012.13 1011.14 1009.95 1011.36
1012.91 1013.12 1013.90 1014.20 1015.40 1017.20 1018.36 1017.02 1016.44 1017.49 1020.55 1020.02 1020.04 1020.31 1020.54 1020.88 1021.90 1022.31 1022.35 1022.31 1022.23 1021.69 1021.35 1021.63 1021.91 1021.74 1021.52 1021.16 1020.44 1019.73 1019.25 1018.97 1018.92 1018.12 1017.54 1016.90 1016.12 1015.40 1014.88 1013.88 1012.36 1012.34 1012.17 1011.75
1014.92 1015.26 1016.06 1016.31 1017.24 1018.77 1018.94 1018.02 1018.64 1020.59 1020.83 1020.91 1020.82 1020.97 1021.26 1021.73 1022.17 1022.68 1022.93 1022.92 1022.67 1022.68 1022.68 1022.80 1022.88 1022.74 1022.68 1022.33 1021.55 1021.03 1020.36 1019.82 1019.46 1018.90 1018.70 1018.22 1017.60 1017.25 1016.63 1015.32 1014.69 1014.18 1014.13 1013.42
1016.66 1017.20 1017.75 1018.78 1019.87 1020.69 1020.92 1020.72 1021.06 1021.26 1021.49 1021.62 1021.57 1021.47 1021.82 1022.49 1023.11 1023.47 1023.66 1023.74 1023.89 1023.92 1023.95 1024.18 1024.19 1024.03 1023.81 1023.31 1022.76 1022.03 1021.50 1020.65 1020.03 1019.89 1019.73 1019.37 1018.89 1018.49 1017.91 1016.89 1016.62 1015.82 1015.59 1015.67
1017.87 1017.97 1019.01 1019.91 1020.97 1021.20 1021.54 1021.80 1021.87 1021.98 1022.02 1022.25 1022.27 1022.38 1022.67 1023.38 1024.01 1024.42 1024.74 1024.90 1025.05 1025.25 1025.39 1025.44 1025.25 1025.04 1024.76 1024.37 1023.84 1023.34 1022.54 1021.65 1020.98 1020.66 1020.58 1020.25 1019.77 1019.45 1019.23 1018.93 1018.12 1017.47 1017.18 1016.74
1019.09 1019.00 1019.82 1020.80 1021.52 1021.90 1022.28 1022.58 1022.67 1022.71 1022.77 1023.02 1023.28 1023.56 1023.96 1024.41 1025.14 1025.56 1025.94 1026.21 1026.42 1026.55 1026.59 1026.47 1026.28 1026.16 1026.01 1025.56 1024.97 1024.45 1023.79 1022.84 1022.13 1021.65 1021.25 1020.96 1020.78 1020.53 1020.16 1020.09 1019.54 1019.20 1018.87 1018.76
1019.80 1020.13 1020.36 1020.88 1021.19 1021.78 1022.64 1022.97 1023.08 1023.33 1023.78 1024.02 1024.27 1024.73 1025.12 1025.43 1026.11 1026.69 1027.25 1027.48 1027.42 1027.45 1027.48 1027.45 1027.37 1027.20 1027.01 1026.60 1026.07 1025.36 1024.55 1023.73 1023.16 1022.75 1022.38 1021.97 1021.65 1021.51 1021.31 1021.12 1020.97 1020.57 1020.16 1019.71
Wind_Speed
4 7 10 13 14 17 14 15 21 19 14 11 17 20 23 13 17 18 12 9 10 12 12 12 14 14 10 8 8 17 19 18 13 11 10 8 12 9 7 7 10 10 8 9
9 14 18 16 15 16 16 18 23 22 24 15 15 15 9 13 13 9 15 12 11 6 7 10 10 9 5 6 5 13 19 18 17 13 12 7 8 4 6 5 8 10 9 8
6 22 14 16 19 19 19 20 17 23 19 20 14 17 15 19 14 16 17 14 13 14 6 9 14 12 11 14 13 4 12 20 19 18 8 5 5 4 3 5 7 8 11 10
10 16 19 20 21 17 16 21 19 20 12 10 6 8 9 10 11 12 9 7 6 13 14 11 11 15 14 13 12 14 9 5 12 18 14 16 14 11 9 9 8 9 12 11
15 12 8 19 18 14 18 21 20 13 11 4 7 3 8 8 8 7 9 15 16 15 14 14 13 12 10 11 11 12 13 12 5 7 12 15 15 11 3 7 12 12 10 11
19 17 14 15 12 12 3 7 11 1 4 7 7 9 6 4 11 5 19 16 16 14 13 13 11 11 12 11 11 11 13 10 10 8 7 9 11 7 8 10 10 10 9 7
8 12 8 11 9 10 5 3 3 1 2 5 5 9 11 14 17 20 18 15 15 14 15 17 20 19 17 19 16 12 13 15 13 10 9 11 14 13 15 14 12 12 9 7
3 8 4 3 10 8 4 9 6 7 5 5 5 6 1 16 16 17 20 16 16 19 17 18 18 16 17 17 17 16 15 12 14 13 13 12 13 11 11 12 9 9 10 10
2 4 4 2 5 4 5 7 7 4 4 3 3 5 14 17 20 20 18 19 20 18 16 17 17 16 17 17 17 16 16 17 14 15 13 14 13 14 13 14 11 10 10 9
3 5 2 6 4 8 12 5 2 3 3 2 2 7 6 13 14 18 18 20 18 19 17 20 20 21 19 18 16 17 15 16 16 16 11 12 15 16 14 13 13 13 11 12
3 3 6 10 5 3 0 4 4 5 4 1 1 5 8 9 9 13 12 18 18 19 17 19 18 19 17 17 17 16 16 17 17 17 16 7 11 11 13 14 13 14 12 13
3 2 7 6 10 2 2 2 4 5 1 4 4 3 5 9 6 13 12 18 19 16 16 17 17 16 16 18 18 18 17 17 17 17 17 11 5 4 12 11 13 12 13 12
2 1 5 1 4 5 3 2 2 9 3 1 4 4 6 7 13 11 14 14 15 16 15 18 16 16 16 17 18 18 17 17 17 17 16 15 14 8 5 8 9 11 11 11
4 3 5 3 4 3 4 8 5 7 4 6 10 7 5 11 13 13 14 13 12 13 18 16 16 17 17 17 18 17 17 17 17 17 17 15 15 14 5 4 9 11 11 12
3 6 8 2 3 13 10 9 11 13 10 4 8 8 8 10 13 11 11 14 18 19 19 18 17 16 17 18 18 18 18 17 17 17 17 17 16 15 15 3 5 9 11 10
6 3 7 13 17 22 21 25 21 17 14 13 14 9 9 11 11 14 15 16 16 14 18 17 16 16 16 18 17 17 17 18 16 17 17 17 16 16 15 14 10 5 9 10
5 3 3 3 7 1 16 16 22 21 18 7 5 6 8 14 14 13 13 14 12 12 15 14 14 14 15 17 17 18 18 17 17 16 18 17 18 16 16 14 17 14 14 8
6 6 2 2 7 7 4 9 19 22 16 15 10 11 11 14 11 13 13 10 11 10 12 12 13 14 14 14 15 15 16 17 18 18 17 17 16 16 14 13 17 14 14 13
3 4 4 1 6 8 8 10 6 6 12 11 11 4 8 9 6 13 12 10 10 11 10 10 10 11 13 16 15 14 16 16 17 18 17 16 16 15 15 15 14 14 14 13
7 11 4 1 5 4 4 17 11 6 8 11 11 12 12 4 4 5 9 9 12 8 10 10 13 13 15 16 14 14 15 16 16 15 15 15 15 14 13 11 11 10 14 9
5 4 7 6 4 4 14 17 7 3 3 7 9 10 12 8 5 1 5 7 8 9 13 12 12 12 14 14 13 15 14 12 12 13 13 14 15 14 13 11 13 12 11 10
7 5 5 4 5 4 18 5 6 5 7 8 8 8 10 8 6 9 8 9 13 14 14 14 12 12 13 14 13 14 14 12 9 12 13 13 13 11 10 14 12 12 10 11
5 3 3 6 4 4 6 11 9 6 5 5 7 5 7 9 10 9 10 12 13 13 12 11 11 12 12 14 14 14 14 13 12 10 11 11 12 12 12 13 11 10 10 8
3 1 4 3 4 8 7 8 7 6 6 8 10 11 12 11 10 10 10 10 10 10 10 10 11 12 13 13 14 14 14 14 12 11 8 9 10 12 12 9 9 10 9 8
2 4 3 4 7 8 8 7 5 8 10 11 13 12 11 12 10 10 9 9 9 9 9 10 10 11 12 12 13 13 14 12 10 10 10 6 7 8 9 10 11 9 11 10
3 2 0 2 7 5 5 6 6 9 10 10 11 12 11 11 10 10 9 8 8 9 9 9 11 11 11 11 12 13 13 12 11 10 8 7 4 4 5 5 6 19 18 23
Wind_Direction
257 274 266 270 228 243 263 267 279 277 293 292 276 275 268 251 241 252 242 216 222 222 235 239 250 237 212 227 169 182 184 193 180 175 173 174 187 180 182 184 170 175 173 175
315 270 249 263 267 238 240 255 260 273 276 272 278 295 313 286 263 251 248 231 221 228 248 243 229 249 320 341 247 182 186 183 186 183 191 180 167 183 177 172 178 177 177 173
277 261 267 254 255 252 243 240 253 252 272 283 274 285 283 267 259 255 247 226 225 218 202 46 62 58 51 38 8 279 202 183 188 188 157 120 95 86 113 198 190 187 183 186
263 255 246 253 257 263 264 252 247 255 260 263 120 288 287 266 281 230 248 217 85 82 80 62 47 50 36 27 15 23 13 244 205 178 171 170 178 174 198 188 185 179 183 185
241 264 270 280 250 279 249 270 254 251 254 261 240 261 269 280 273 239 102 87 71 62 63 52 42 39 29 23 21 15 11 11 302 235 207 177 183 191 131 164 173 182 181 182
251 258 235 228 242 238 311 292 280 127 122 218 203 188 292 313 286 97 86 76 67 59 54 49 43 33 27 25 26 14 8 358 342 336 237 212 197 172 166 173 179 177 179 174
267 246 209 214 254 262 179 168 313 267 246 237 206 182 256 36 31 80 83 63 59 49 40 33 26 20 12 10 7 16 6 345 333 319 286 223 196 188 185 185 185 177 179 186
295 326 177 183 199 214 240 201 174 201 198 213 222 206 7 90 72 56 68 55 44 44 34 33 27 18 11 5 1 359 357 348 327 304 281 237 217 190 195 196 185 184 188 187
291 278 303 97 296 145 240 188 193 117 266 91 212 125 54 35 43 32 33 46 35 28 25 28 26 17 11 5 357 354 350 337 326 300 271 240 212 197 194 187 178 176 175 180
257 303 348 320 255 224 223 160 103 9 191 227 182 62 14 20 33 25 11 45 38 30 22 30 23 15 10 0 351 354 352 339 322 320 309 232 200 197 189 179 179 179 175 166
10 349 318 346 237 198 339 140 74 122 125 42 186 75 0 25 1 61 335 47 38 28 17 29 23 17 6 2 356 353 352 347 338 336 330 281 217 198 182 183 186 175 175 170
350 304 272 219 340 14 7 118 126 111 233 120 78 62 344 43 2 51 9 33 34 24 18 26 22 11 10 2 1 357 352 353 348 342 345 353 13 228 194 186 185 176 175 176
243 255 320 69 359 326 327 355 57 93 47 165 78 87 11 61 54 36 33 34 34 23 20 28 17 11 6 5 5 358 357 354 354 354 355 360 1 358 255 171 177 173 162 172
174 49 323 254 277 246 244 227 206 113 49 51 74 108 47 48 52 43 37 39 38 30 32 24 18 9 6 3 2 359 1 0 2 0 3 5 358 348 309 215 160 160 164 165
72 4 328 178 51 71 22 94 104 96 90 42 99 96 59 42 49 36 41 41 35 29 24 21 15 5 7 5 360 2 2 1 6 11 7 3 359 359 4 304 174 154 157 157
330 24 6 42 61 68 59 49 65 83 99 109 112 96 74 66 52 37 32 28 29 25 27 19 15 12 9 5 2 0 1 1 5 17 11 7 5 14 15 11 350 171 155 153
336 335 11 61 322 243 48 52 58 60 41 24 48 84 93 66 53 39 30 26 21 24 23 18 14 13 8 7 5 5 360 1 3 10 15 8 17 14 22 18 32 20 20 39
326 335 140 11 340 53 83 39 72 63 45 42 82 97 99 99 75 49 35 27 25 21 32 27 21 14 9 6 11 5 8 9 8 6 7 13 13 21 21 30 49 23 35 41
268 294 66 69 50 137 60 19 346 34 50 39 43 90 153 160 115 50 26 19 17 16 50 35 25 18 13 12 4 14 19 15 13 8 1 1 14 14 20 25 37 45 44 37
16 31 74 21 62 69 17 330 314 268 55 23 40 37 43 291 57 23 357 352 8 1 67 44 30 21 22 10 5 9 23 20 13 6 3 3 3 22 8 11 30 43 57 40
352 8 31 24 91 89 353 328 305 71 32 23 52 53 49 75 74 228 341 24 27 28 46 45 35 29 19 9 9 16 12 28 9 10 12 12 11 12 12 11 25 30 40 32
17 358 20 356 53 14 355 29 53 86 57 38 57 82 82 90 91 69 46 43 42 38 40 36 31 28 20 12 12 13 12 3 23 20 17 17 18 18 12 18 20 34 31 40
40 24 67 20 86 72 21 59 64 66 90 51 49 73 107 84 72 61 52 46 46 41 36 35 29 22 17 13 13 10 2 0 11 32 20 21 26 26 18 23 23 31 30 31
66 66 86 105 94 93 79 65 48 35 85 68 52 58 84 84 69 63 54 48 49 43 37 30 29 24 16 9 10 8 358 1 11 15 34 23 26 32 32 33 32 33 25 27
337 8 93 78 122 110 85 81 69 59 70 73 62 60 85 82 68 69 58 52 52 47 39 34 29 24 15 5 5 2 357 360 9 13 14 27 28 27 32 35 35 36 43 45
8 6 215 139 136 95 100 101 72 83 75 69 78 71 69 80 78 69 57 48 47 46 37 35 31 25 12 6 3 358 355 359 13 17 10 10 22 28 24 27 31 38 49 47